Location: Saint-Br�vin-les-Pins
(47.2500°N, 2.1670°W)
Time: 04:14:24
(UTC+01:00)

Envisat - Visible Passes

Search period start: 17 February 2019 00:00
Search period end: 27 February 2019 00:00
Orbit: 764 x 766 km, 98.2° (Epoch: 16 February)

Date Brightness Start Highest point End Pass type
(mag) Time Alt. Az. Time Alt. Az. Time Alt. Az.
17 Feb 6.6 07:10:49 10° ENE 07:12:10 11° E 07:13:31 10° E visible
17 Feb 3.6 20:04:37 10° S 20:09:37 58° W 20:14:39 10° NNW visible
18 Feb 3.0 19:27:49 10° SSE 19:32:51 69° ENE 19:37:56 10° N visible
18 Feb 5.8 21:09:08 10° SW 21:12:24 17° W 21:15:40 10° NW visible
19 Feb 6.0 07:34:28 10° NE 07:38:04 19° E 07:41:37 10° SE visible
19 Feb 4.7 20:30:41 10° SSW 20:35:17 34° W 20:39:56 10° NNW visible
20 Feb 3.3 19:53:19 10° S 19:58:23 72° WSW 20:03:30 10° NNW visible
21 Feb 3.1 19:16:44 10° SSE 19:21:41 56° ENE 19:26:40 10° N visible
21 Feb 5.5 20:57:16 10° SW 21:01:03 21° W 21:04:53 10° NW visible
22 Feb 6.2 07:23:46 10° NE 07:26:43 15° E 07:29:39 10° ESE visible
22 Feb 4.3 20:19:12 10° S 20:24:00 43° W 20:28:52 10° NNW visible
23 Feb 3.0 19:42:05 10° SSE 19:47:10 88° W 19:52:17 10° NNW visible
23 Feb 6.1 21:24:52 10° WSW 21:26:56 12° W 21:29:00 10° WNW visible
24 Feb 5.2 20:45:32 10° SSW 20:49:44 26° W 20:53:59 10° NW visible
25 Feb 6.5 07:13:22 10° ENE 07:15:21 12° E 07:17:19 10° ESE visible
25 Feb 3.8 20:07:48 10° S 20:12:45 53° W 20:17:45 10° NNW visible
26 Feb 3.0 19:30:54 10° SSE 19:35:58 75° ENE 19:41:04 10° N visible
26 Feb 5.9 21:12:35 10° SW 21:15:34 16° W 21:18:34 10° NW visible
